User: anonymous   Login
Location: Unspecified
(0.0000°N, 0.0000°E)
Time: 01:34:10
(UTC+00:00)
Language:

SAR-Lupe-4 - Orbit

View from above orbital plane
View from above orbital plane
View from above satellite
View from above satellite

Ground track
Ground track

The orbit data is extracted from the following two-line orbital elements,

1 32750U 08014A   17102.85540854 0.00001500  00000-0  56396-4 0    02
2 32750  98.1453 146.7824 0001000 300.8831  59.1168 15.27187690    01
Epoch (UTC): 12 April 2017 20:31:47
Eccentricity: 0.0001000
inclination: 98.1453°
perigee height: 483 km
apogee height: 485 km
right ascension of ascending node: 146.7824°
argument of perigee: 300.8831°
revolutions per day: 15.27187690
mean anomaly at epoch: 59.1168°
orbit number at epoch: 0

The dashed part of the orbit path shows where the satellite is in the earth's shadow,  

DLR